Location: Olsztyn
(53.7767°N, 20.4765°E)
Time: 13:35:35
(UTC+02:00)

Vanguard 2 Rocket - All Passes

Search period start: 19 July 2024 00:00
Search period end: 29 July 2024 00:00
Orbit: 555 x 3302 km, 32.9° (Epoch: 19 July)

Date Brightness Start Highest point End Pass type
(mag) Time Alt. Az. Time Alt. Az. Time Alt. Az.
19 Jul - 00:54:04 10° SW 01:00:39 17° SSW 01:09:02 10° SSE visible
19 Jul - 21:40:05 10° SSW 21:45:10 19° S 21:52:06 10° SE visible
19 Jul - 23:51:29 10° SW 23:57:39 18° SSW 00:05:52 10° SSE visible
20 Jul - 20:39:17 10° SSW 20:42:55 15° SSE 20:47:29 10° SE daylight
20 Jul - 22:49:29 10° SW 22:54:53 18° S 23:02:09 10° SSE visible
21 Jul - 01:04:16 10° SW 01:07:44 12° SSW 01:11:38 10° S visible
21 Jul - 21:47:56 10° SSW 21:52:22 16° S 21:58:10 10° SE visible
22 Jul - 00:00:37 10° SW 00:04:50 13° SSW 00:09:54 10° S visible
22 Jul - 20:46:55 10° SSW 20:50:04 14° S 20:53:56 10° SE daylight
22 Jul - 22:58:08 10° SW 23:02:06 14° S 23:07:01 10° SSE visible
23 Jul - 21:56:18 10° SSW 21:59:35 13° S 22:03:35 10° SSE visible
24 Jul - 20:55:08 10° SSW 20:57:16 12° S 20:59:44 10° SSE daylight
